CAPE
0 0 0 0 0 0 0 0 0 0 0 0 0 0 0 0 0 0 0 0 0 0 0 0 0 0 0 0 0 2356 2934 2711 2528 2420 2468 2408 2343 2172 2182 1993 2107 1879 2105 2346 2366 2252 2151 2014 1907 1855 1918 1920 1877 1823 1766 1745 1728 1706 1653 1327 1167 1182 1196 1234 1232 1164 1113 1032 1045 1151 1209 1170 1186 945 945 1006 938 898 756 693 625 582 618 593 658 694
0 0 0 0 0 0 0 0 0 0 0 0 0 0 0 0 0 0 0 0 0 0 0 0 0 0 0 0 0 557 2647 2732 2537 2416 2470 2472 2376 2166 2026 2022 1979 1778 2022 2367 2420 2345 2196 2058 1943 1933 1949 1955 1923 1879 1828 1799 1808 1778 1720 1449 1273 1272 1262 1229 1220 1219 1155 1108 1106 1183 1190 1077 1039 1008 1090 1063 998 841 773 735 693 684 730 738 748 825
0 0 0 0 0 0 0 0 0 0 0 0 0 0 0 0 0 0 0 0 0 0 0 0 0 0 0 0 0 54 2048 2648 2531 2321 2381 2470 2315 2155 1942 1924 1806 1732 1923 2368 2362 2123 2053 2067 2029 1992 1988 2000 1946 1880 1791 1794 1806 1844 1769 1504 1316 1304 1252 1244 1283 1269 1173 1154 1102 1120 1172 1164 1170 1287 1204 1000 916 794 716 746 750 753 858 876 877 907
0 0 0 0 0 0 0 0 0 0 0 0 0 0 0 0 0 0 0 0 0 0 0 0 0 0 0 0 0 0 1272 2160 2398 2306 2237 2268 2213 2102 1941 1790 1801 1821 1853 2255 2283 2120 1916 1994 2002 2012 2028 1985 1925 1863 1778 1757 1810 1842 1800 1539 1310 1353 1266 1271 1320 1317 1294 1240 1216 1218 1230 1237 1377 1338 1110 897 831 756 691 693 688 693 842 967 953 864
0 0 0 0 0 0 0 0 0 0 0 0 0 0 0 0 0 0 0 0 0 0 0 0 0 0 0 0 0 0 34 1133 1845 2113 2111 2081 2085 2064 2131 1954 1938 1929 1832 2092 2238 2094 2008 1945 1851 1862 1947 1941 1846 1805 1795 1685 1584 1605 1637 1546 1446 1412 1330 1370 1376 1368 1281 1228 1283 1156 1208 1399 1329 1180 991 806 736 700 726 716 678 615 771 987 970 873
0 0 0 0 0 0 0 0 0 0 0 0 0 0 0 1 2 1 0 0 0 0 0 0 0 0 0 0 0 0 0 79 898 1712 1891 2017 2005 1978 1963 1984 2003 1936 1875 1843 2174 2158 2100 1957 1817 1827 1829 1856 1804 1840 1755 1625 1520 1429 1467 1488 1493 1386 1305 1320 1301 1142 1226 1289 1192 1114 1217 1389 1139 1070 943 725 661 660 708 743 589 558 610 674 708 732
0 0 0 0 0 0 0 0 0 0 0 0 0 0 0 2 2 2 1 0 0 0 0 0 0 0 0 0 0 0 0 113 750 1475 1701 1884 1954 1993 1977 2075 2019 1963 1918 1855 1986 2151 1987 1757 1746 1851 1806 1750 1746 1748 1707 1634 1602 1415 1363 1408 1500 1367 1246 1282 1167 1186 1230 1203 1102 1128 1339 1286 1079 1104 971 684 656 674 609 528 520 535 528 535 560 528
0 0 0 0 0 0 0 0 0 0 0 0 0 0 0 2 3 2 1 0 0 0 0 0 0 0 0 0 41 11 102 389 834 1260 1588 1848 1955 1994 2002 2091 1990 1984 1939 1875 1798 1932 1821 1704 1772 1837 1739 1683 1657 1666 1689 1687 1638 1473 1332 1387 1479 1433 1320 1266 1173 1273 1260 1166 1121 1237 1340 1269 1157 1125 1052 729 618 574 439 375 456 496 472 398 285 0
0 0 0 0 0 0 0 0 0 0 0 0 0 0 0 0 0 0 0 0 0 0 0 0 0 0 0 0 305 484 426 685 889 1161 1512 1813 2014 2077 2059 2057 1949 1979 1910 1778 1729 1754 1812 1808 1780 1738 1688 1545 1546 1628 1733 1679 1473 1227 1269 1339 1385 1408 1292 1220 1274 1341 1422 1305 1261 1318 1294 1252 1214 1106 1116 782 559 429 258 272 356 411 357 320 0 0
0 0 0 0 0 0 0 0 0 0 0 0 0 0 0 1 1 0 0 0 0 0 0 0 0 0 0 0 480 524 738 554 839 1111 1561 1881 2080 2136 2103 2029 1944 1918 1845 1727 1720 1764 1830 1785 1772 1687 1557 1479 1467 1589 1676 1643 1420 1154 1175 1207 1379 1320 1258 1310 1361 1365 1332 1402 1351 1378 1298 1252 1109 1011 1056 709 394 239 137 0 0 286 314 150 0 0
0 0 0 0 0 0 0 0 0 0 0 0 0 0 1 4 5 1 0 0 0 0 0 0 0 0 0 0 118 501 328 719 913 1251 1756 2078 2107 2092 2091 1996 1932 1872 1818 1711 1703 1741 1785 1781 1793 1656 1540 1470 1486 1575 1648 1656 1541 1288 1072 1033 1285 1329 1282 1342 1440 1347 1338 1378 1363 1363 1309 1159 1007 842 732 507 222 132 0 0 0 0 0 0 0 0
0 0 0 0 0 0 0 0 0 0 0 0 2 7 6 7 3 0 0 0 0 0 0 6 0 0 0 46 109 310 406 410 495 1294 1828 2075 2102 2099 2024 1926 1902 1859 1812 1721 1692 1674 1726 1803 1834 1780 1688 1553 1470 1505 1662 1677 1532 1364 1182 1102 1283 1357 1324 1337 1391 1258 1326 1309 1335 1310 1147 960 728 518 428 279 160 0 0 0 0 0 0 0 0 0
0 0 0 0 0 0 0 0 0 0 0 4 10 8 2 8 1 10 0 0 0 0 0 9 2 0 0 194 319 550 688 872 497 835 1563 1888 2002 2023 1892 1834 1843 1828 1786 1801 1702 1630 1551 1822 2004 1955 1852 1668 1460 1484 1571 1558 1420 1168 1057 1076 1150 1274 1384 1322 1344 1260 1375 1298 1243 1134 944 782 569 393 251 180 10 0 0 0 0 0 0 0 0 0
0 0 0 0 0 0 0 0 0 0 0 5 3 10 1 3 3 1 0 0 0 0 0 8 0 0 0 127 478 672 842 1062 1066 717 1212 1767 1933 1947 2007 1930 1852 1826 1819 1860 1813 1450 1337 1834 1914 1907 1754 1534 1388 1365 1410 1286 860 525 623 729 966 1328 1380 1329 1299 1330 1413 1264 1114 914 768 652 539 419 315 168 0 0 0 0 0 0 0 0 0 0
0 0 0 0 0 0 0 0 0 0 0 0 0 0 1 1 1 0 0 0 0 0 0 1 0 0 0 6 708 1088 1249 1204 773 724 1177 1894 1948 1947 1915 1865 1780 1733 1759 1762 1746 1256 1406 1490 1572 1593 1470 1368 1172 1054 1093 918 697 796 786 719 812 1154 1341 1294 1322 1441 1374 1147 988 740 646 644 547 437 332 0 0 0 0 0 0 0 0 0 0 0
0 0 0 0 0 0 0 0 0 0 0 0 0 0 1 2 0 0 0 0 0 0 0 1 144 163 131 617 1046 1293 1507 1469 1423 1516 1774 1938 1990 1967 1835 1787 1710 1596 1573 1649 1246 1069 1299 1413 1533 1411 1290 1216 1100 987 932 888 963 1074 1100 854 821 907 1084 1182 1368 1454 1272 1035 857 625 570 642 561 413 351 42 56 87 0 0 0 0 0 0 0 0
0 0 0 0 0 0 0 0 0 0 1 0 0 1 0 0 0 0 0 0 0 0 0 24 29 322 488 364 1070 1372 1501 1575 1657 1633 1823 1897 1942 1902 1814 1743 1735 1626 1456 1130 986 1094 1420 1532 1527 1327 1210 1093 998 462 596 648 976 1113 1090 961 764 677 886 978 1375 1392 1168 979 734 542 538 563 482 390 297 123 131 68 0 0 0 0 0 0 0 0
0 0 0 0 0 0 0 0 0 0 0 0 0 0 0 0 0 0 0 0 4 4 0 0 605 396 78 776 989 1412 1432 1550 1707 1705 1722 1788 1801 1828 1740 1688 1644 1510 1075 795 998 1145 1117 1161 1203 1246 1177 1054 955 844 663 169 876 1072 985 830 670 745 655 1080 1341 1302 1167 912 694 594 533 504 478 468 186 61 58 36 0 0 0 0 0 0 0 0
0 0 0 0 0 0 0 0 0 0 0 0 0 0 0 0 0 0 0 0 0 0 0 0 200 269 152 402 765 1019 1149 1362 1422 1426 1511 1620 1538 1566 1640 1424 1379 1026 850 849 930 878 774 956 1272 1294 1013 928 949 947 996 706 872 967 977 808 648 632 460 851 1128 1116 1076 862 724 662 604 600 602 434 28 47 0 0 0 0 0 0 0 0 0 0
0 0 0 0 0 0 0 0 0 0 0 0 0 0 0 0 0 0 0 0 0 0 0 0 20 414 270 7 452 937 1145 1192 1357 1345 1430 1366 1370 1432 1122 828 614 765 772 827 915 743 775 1042 1313 1175 1026 959 980 953 982 999 815 881 862 703 617 510 662 698 766 890 940 824 737 745 732 704 629 233 190 196 0 0 0 0 0 0 0 0 0 0
0 0 0 0 0 0 0 0 0 0 0 0 0 0 0 0 0 0 0 0 0 0 0 0 75 0 256 202 270 753 971 1080 1152 1278 1212 1070 1208 1114 638 526 540 499 685 993 959 870 1080 1167 1018 1083 1071 1028 1040 1014 906 884 879 869 824 722 534 616 651 741 692 590 752 748 759 848 832 730 416 243 300 21 0 0 0 0 0 0 0 0 0 0
0 0 0 0 0 0 0 0 0 0 0 0 0 0 0 0 0 1 1 0 0 0 0 0 0 0 15 264 292 511 883 1014 976 1055 1186 1144 1150 937 608 375 402 304 404 395 646 1263 1264 934 838 953 1016 1109 1057 1085 1021 840 857 929 817 755 651 532 735 686 618 556 524 656 838 913 841 615 222 362 278 0 0 0 0 0 0 0 0 0 0 0
0 0 0 0 0 0 0 0 0 0 0 0 0 0 0 0 0 0 0 0 0 0 0 0 0 0 43 283 348 476 715 890 900 896 1013 1051 974 690 262 94 228 235 145 177 596 739 1021 996 777 833 888 865 1048 987 888 853 760 775 746 684 706 754 620 776 670 625 601 794 852 804 584 364 420 337 173 0 0 0 0 0 0 0 0 0 0 0
92 0 0 0 0 0 0 0 0 0 0 0 0 0 0 0 0 0 0 0 0 0 0 0 0 131 111 298 398 474 625 730 711 779 835 848 808 538 432 265 43 178 123 150 301 673 775 699 765 897 969 991 1000 984 912 628 656 757 712 686 661 684 730 732 686 709 796 813 848 615 534 519 443 276 0 0 0 0 0 0 0 0 0 0 0 0
14 18 0 11 0 0 0 0 0 0 0 0 0 0 0 0 0 0 0 0 0 0 0 0 0 324 361 370 411 490 546 704 786 717 703 752 451 398 433 114 71 31 209 260 276 408 408 481 606 784 728 813 762 778 663 528 645 776 787 718 550 602 672 729 742 799 906 880 637 579 531 465 334 241 0 0 0 0 0 0 0 0 0 0 0 0
0 1 0 0 0 0 0 0 0 0 0 0 0 0 0 0 0 0 0 0 0 0 0 0 0 193 320 392 420 474 479 497 540 548 678 696 642 341 341 380 375 341 85 76 240 350 416 398 458 422 398 425 505 358 396 522 482 653 709 686 527 539 586 671 676 653 663 700 673 542 480 387 259 85 0 0 0 0 0 0 0 0 0 0 0 0
0 0 0 0 0 0 0 0 0 0 0 0 0 0 0 0 0 0 0 0 0 0 0 0 0 222 254 399 346 463 465 445 486 508 501 509 305 367 402 395 340 49 66 44 96 51 161 370 529 495 75 104 124 129 111 374 363 442 614 626 535 455 400 367 368 374 186 445 555 452 388 333 74 0 0 0 0 0 0 0 0 0 0 0 0 0
0 0 0 0 0 0 0 0 0 0 0 0 0 0 0 0 0 0 0 58 0 0 0 0 12 117 325 306 341 442 450 451 453 446 418 390 228 83 2 34 236 261 274 258 264 265 114 79 44 98 108 146 125 48 91 60 45 379 547 600 584 519 528 468 391 381 397 372 362 202 0 0 0 0 0 0 0 0 0 0 0 0 0 0 0 0
2 0 0 0 0 0 0 0 0 0 0 0 0 0 0 0 0 0 0 0 0 0 0 1 45 158 297 199 314 471 445 485 461 458 374 281 78 88 142 259 322 340 331 310 299 234 218 1 30 65 98 106 146 132 156 88 63 122 83 593 689 558 441 495 579 516 430 426 206 0 0 0 0 0 0 0 0 1 0 0 0 0 0 0 0 0
0 0 0 0 0 0 0 0 0 0 0 0 0 0 0 0 0 0 0 0 0 0 14 18 2 136 6 128 377 426 399 412 458 390 325 174 155 298 339 389 433 426 363 312 254 146 79 63 20 14 42 114 102 115 121 107 97 77 75 224 516 431 298 332 339 423 450 264 0 0 2 8 4 6 4 10 0 1 0 0 0 0 0 0 0 0
0 1 0 0 0 0 0 0 0 0 0 0 0 0 0 1 0 0 0 0 0 0 2 0 0 133 1 36 323 424 360 391 397 361 336 199 222 426 488 562 587 550 411 98 64 78 47 75 100 66 46 76 107 114 111 112 41 26 5 203 268 293 340 419 448 393 33 4 3 7 22 13 6 12 5 0 0 0 0 0 0 0 0 0 0 0
0 0 0 0 8 1 0 0 0 0 0 0 0 0 0 0 2 0 0 0 0 0 1 1 0 0 1 11 153 364 422 429 386 340 251 211 233 413 472 269 281 138 172 117 119 71 58 36 16 39 38 31 46 53 46 41 76 140 101 33 157 181 221 250 42 0 38 257 161 54 0 0 0 5 0 0 0 0 0 17 9 4 9 10 0 0
0 0 0 0 7 9 0 0 0 0 1 2 2 0 0 0 0 0 0 0 0 0 0 0 2 0 2 25 110 255 384 432 409 351 188 138 88 333 419 468 395 70 106 120 61 90 20 2 23 55 37 10 11 3 4 27 100 149 184 216 177 169 156 176 151 8 0 5 0 0 0 0 38 13 0 0 0 10 25 36 40 32 21 8 0 0
0 0 1 1 1 1 0 1 1 1 0 2 0 0 0 0 0 0 0 0 1 0 3 0 0 0 0 12 39 24 269 413 320 305 242 146 91 118 143 332 408 339 66 125 71 11 11 20 5 23 29 4 5 11 13 37 35 30 163 138 154 239 247 129 89 62 37 37 49 19 31 9 4 4 0 4 9 2 18 25 38 32 0 70 179 148
7 4 1 1 16 6 2 9 6 0 0 0 7 3 2 0 5 0 0 0 1 1 8 6 3 0 0 0 13 43 14 112 227 237 201 184 122 119 161 188 268 18 30 78 42 19 31 50 92 72 42 38 38 45 46 38 42 10 48 49 111 121 212 168 132 48 68 93 65 58 56 2 2 6 9 12 9 13 12 8 27 4 0 32 221 244
11 5 1 0 6 2 1 14 8 6 0 0 4 0 0 0 0 0 0 1 4 6 2 3 15 52 22 25 31 42 37 29 44 48 35 94 91 134 178 211 168 115 76 68 48 10 15 40 60 34 18 4 6 11 12 13 9 19 2 0 4 4 22 68 140 120 97 95 55 22 17 30 7 16 22 24 19 5 0 10 2 52 0 0 135 147
9 11 4 4 5 9 1 4 4 4 0 0 2 0 2 6 4 2 6 1 6 2 3 1 1 22 72 29 32 38 31 28 35 53 52 152 76 22 14 79 82 50 17 31 20 20 11 14 20 10 21 6 8 6 9 7 13 18 6 2 3 3 3 19 38 20 24 32 42 25 7 2 0 0 2 4 4 29 20 34 46 36 2 1 1 2
104 67 68 6 12 9 10 12 3 1 2 0 1 3 1 0 0 10 0 2 4 1 0 0 1 0 17 43 55 35 26 43 24 13 27 40 16 27 24 24 16 5 19 28 12 2 3 13 14 25 15 14 10 5 4 3 2 19 12 9 6 2 1 3 1 1 7 25 24 7 16 6 10 3 8 3 18 5 0 22 31 98 84 70 37 0
28 18 84 10 7 8 14 20 13 1 0 0 1 0 3 0 0 1 0 9 0 0 0 0 5 11 14 29 15 10 3 3 2 2 3 0 4 2 8 15 17 20 15 5 3 2 0 2 3 0 0 3 7 11 10 4 3 12 23 12 14 17 20 19 10 20 24 26 25 24 23 10 7 2 1 3 0 9 21 18 13 13 0 73 0 5
31 28 36 4 8 5 27 8 22 16 18 1 0 0 0 0 1 0 0 0 0 0 1 1 3 7 3 4 12 14 16 7 0 0 3 3 2 0 0 7 15 2 0 1 0 0 0 1 1 4 0 0 0 0 0 0 0 0 1 6 13 22 20 23 27 29 28 23 11 8 8 5 3 2 0 1 3 5 9 5 7 10 8 5 2 1
24 13 12 29 42 36 3 6 4 4 0 0 0 1 0 0 0 2 2 0 0 2 0 0 1 0 0 0 0 1 1 1 0 1 0 1 2 2 0 0 0 0 0 0 0 1 0 0 0 0 0 0 0 0 0 0 0 0 1 3 4 3 4 3 2 1 4 7 8 10 10 10 4 4 4 4 1 1 2 3 3 2 1 2 7 2
10 0 56 30 54 39 2 12 2 0 0 0 1 2 0 0 4 14 8 0 0 0 1 3 0 0 1 0 0 0 2 4 0 6 11 7 9 4 6 2 0 0 0 1 1 3 1 0 0 0 1 0 0 0 0 2 2 0 2 4 4 3 4 5 6 5 3 4 4 5 5 6 7 6 7 4 5 2 0 0 0 2 0 0 0 0
6 0 2 2 23 0 0 0 0 0 0 0 0 1 0 3 1 0 2 3 0 3 1 5 5 4 2 2 1 0 3 1 4 2 3 1 0 0 1 0 0 5 5 2 1 3 6 4 0 0 1 0 0 1 0 0 1 2 1 2 0 0 0 0 1 3 5 6 6 5 3 2 0 0 0 0 0 0 2 3 3 1 0 0 0 0
0 2 0 0 0 0 2 0 0 0 0 0 0 0 0 0 1 0 0 0 0 6 8 6 9 4 4 6 3 2 6 2 0 2 3 0 2 1 0 0 0 1 1 2 1 0 0 1 0 2 2 0 0 0 0 0 2 6 6 7 6 4 4 6 4 3 4 5 3 0 0 0 0 0 0 0 0 0 0 0 0 0 0 0 0 0
0 0 0 0 0 0 0 0 0 0 0 0 0 0 0 0 0 0 0 1 0 1 1 10 15 8 5 5 0 1 6 3 2 2 1 0 1 1 0 0 0 0 1 1 0 2 7 11 10 7 5 1 1 0 0 0 0 0 0 1 2 6 8 7 3 0 0 0 0 0 0 0 0 0 0 0 0 0 0 0 0 0 0 0 0 0
0 0 0 0 0 0 0 0 0 0 0 0 0 0 0 0 0 0 1 2 0 1 1 4 8 2 0 1 1 6 8 3 9 5 3 3 1 0 0 0 1 2 2 3 1 1 0 6 11 13 13 10 7 6 5 6 1 0 0 0 0 1 2 3 4 3 2 2 0 0 0 0 0 0 0 0 0 0 0 0 0 0 0 0 0 0
0 0 0 0 0 0 0 1 4 1 0 1 1 0 2 1 1 2 3 0 0 0 2 1 4 0 0 0 2 6 8 11 13 6 3 3 0 0 1 0 3 2 0 2 5 8 11 13 15 12 9 10 15 16 16 17 9 6 7 6 14 14 12 11 12 10 6 5 5 3 0 0 0 0 0 0 0 0 0 0 0 0 0 0 0 0
0 0 0 0 0 0 0 1 1 0 2 2 2 4 3 3 1 0 0 0 0 2 1 3 3 0 0 0 0 3 3 3 11 10 11 6 2 1 0 0 2 3 0 2 2 0 0 2 8 12 13 11 7 12 14 21 23 24 21 19 19 18 14 6 2 0 0 0 0 0 0 0 0 0 0 0 0 0 0 0 0 0 0 0 0 0
0 0 0 0 0 0 0 0 0 0 0 6 4 3 6 5 2 2 1 1 1 0 0 0 0 0 0 0 0 0 1 3 2 2 3 4 2 1 2 3 4 3 3 2 3 2 0 0 1 1 1 0 0 0 0 0 0 0 0 0 0 0 0 0 0 0 0 0 0 0 0 0 0 0 0 0 0 0 0 0 0 0 0 0 0 0
0 0 0 0 0 0 0 0 0 0 0 2 7 9 10 7 6 6 8 2 0 5 7 1 0 0 0 0 0 0 0 0 0 0 1 0 0 0 1 0 1 3 4 4 4 1 0 0 0 0 0 0 0 0 0 0 0 0 0 0 0 0 0 0 0 0 0 0 0 0 0 0 0 0 0 0 0 0 0 0 0 0 0 0 0 0
0 0 0 0 0 0 0 0 0 0 0 0 9 13 9 6 12 18 5 4 5 1 3 6 1 0 0 0 0 0 0 2 2 0 1 0 0 0 0 0 0 0 0 0 0 1 2 2 2 2 0 0 0 0 0 0 0 0 0 0 0 0 0 0 0 0 0 0 0 0 0 0 0 0 0 0 0 0 0 0 0 0 0 0 0 0
Wind_Speed
nan nan nan nan nan nan nan nan nan nan nan nan nan nan nan nan nan nan nan nan nan nan nan nan nan nan nan nan nan 31 34 32 35 36 36 35 35 31 27 21 18 16 12 14 10 7 7 11 10 9 9 10 12 12 13 16 17 17 18 18 16 12 9 8 10 11 15 17 19 20 21 20 18 16 15 16 16 16 15 15 14 13 12 12 13 14
nan nan nan nan nan nan nan nan nan nan nan nan nan nan nan nan nan nan nan nan nan nan nan nan nan nan nan nan nan 34 34 31 31 33 34 35 35 32 26 22 19 16 20 15 9 7 8 10 10 8 8 10 12 10 11 13 16 17 18 15 12 10 10 11 14 14 15 16 19 21 20 20 19 16 14 15 15 16 17 16 15 13 13 13 13 14
nan nan nan nan nan nan nan nan nan nan nan nan nan nan nan nan nan nan nan nan nan nan nan nan nan nan nan nan nan nan 33 29 28 32 32 33 34 29 23 22 22 20 14 10 7 7 8 10 9 7 8 8 10 10 8 11 15 16 16 13 12 12 14 17 20 19 18 18 20 21 20 20 19 17 14 16 18 20 20 18 16 14 14 14 14 14
nan nan nan nan nan nan nan nan nan nan nan nan nan nan nan nan nan nan nan nan nan nan nan nan nan nan nan nan nan nan 30 25 26 28 29 31 29 25 20 21 19 15 11 10 9 8 10 9 7 7 9 10 10 9 9 11 14 15 15 14 15 15 17 18 18 19 19 20 21 22 23 23 20 16 17 21 21 21 20 19 17 15 14 14 14 14
nan nan nan nan nan nan nan nan nan nan nan nan nan nan nan nan nan nan nan nan nan nan nan nan nan nan nan nan nan nan nan 25 25 31 34 29 25 24 29 27 17 9 8 7 5 7 10 9 9 10 10 11 10 10 10 12 14 14 15 15 17 18 18 17 17 18 19 22 23 23 24 23 21 21 20 21 22 20 18 18 17 15 15 15 14 13
nan nan nan nan nan nan nan nan nan nan nan nan nan nan nan nan nan nan nan nan nan nan nan nan nan nan nan nan nan nan nan nan 29 30 26 27 27 28 25 22 15 8 8 8 6 8 10 8 9 11 13 13 11 11 11 13 15 15 16 18 19 19 19 18 18 19 19 21 22 21 20 19 20 20 19 18 17 17 16 15 16 18 16 14 14 13
nan nan nan nan nan nan nan nan nan nan nan nan nan nan nan nan nan nan nan nan nan nan nan nan nan nan nan nan nan nan nan 24 30 25 26 27 26 26 23 19 13 8 8 7 9 6 4 6 10 13 14 13 12 12 14 14 15 15 19 20 19 18 18 17 18 19 21 22 21 20 20 21 21 20 18 19 19 17 17 20 19 18 19 17 16 15
nan nan nan nan nan nan nan nan nan nan nan nan nan nan nan nan nan nan nan nan nan nan nan nan nan nan nan nan nan nan 27 26 26 23 22 22 24 23 20 16 10 8 7 6 6 5 4 8 12 14 14 14 13 15 16 14 14 15 18 19 20 19 19 18 19 19 20 22 21 23 25 26 24 19 18 19 20 20 20 22 22 21 20 20 18 nan
nan nan nan nan nan nan nan nan nan nan nan nan nan nan nan nan nan nan nan nan nan nan nan nan nan nan nan nan 26 27 26 22 18 15 14 15 16 16 16 14 9 8 9 8 8 4 6 10 12 13 15 15 17 16 16 15 15 17 18 19 20 19 18 18 20 22 21 23 22 24 27 27 23 20 21 21 21 21 23 25 24 23 22 21 nan nan
nan nan nan nan nan nan nan nan nan nan nan nan nan nan nan nan nan nan nan nan nan nan nan nan nan nan nan nan 30 28 25 18 14 13 11 10 10 11 12 13 11 12 12 11 8 3 6 12 14 17 18 17 17 16 16 16 18 19 19 20 21 18 17 17 21 24 23 23 23 25 26 27 24 23 24 23 23 24 24 nan nan 23 23 21 nan nan
nan nan nan nan nan nan nan nan nan nan nan nan nan nan nan nan nan nan nan nan nan nan nan nan nan nan nan nan 27 25 18 19 20 17 13 10 8 8 11 13 14 14 14 14 12 9 12 16 17 18 18 16 17 17 17 17 18 19 19 18 19 19 20 19 21 24 23 23 23 26 27 26 25 24 25 26 27 26 nan nan nan nan nan nan nan nan
nan nan nan nan nan nan nan nan nan nan nan nan nan nan nan nan nan nan nan nan nan nan nan nan nan nan nan nan 30 21 20 18 17 13 10 8 8 11 13 16 17 19 19 18 17 18 18 16 17 20 18 16 16 17 17 17 17 18 18 17 17 19 21 21 21 23 23 23 24 26 27 27 27 26 26 26 24 nan nan nan nan nan nan nan nan nan
nan nan nan nan nan nan nan nan nan nan nan nan nan nan nan nan nan nan nan nan nan nan nan nan nan nan nan 24 29 27 20 19 18 17 11 7 9 12 15 20 24 25 27 27 29 33 30 21 20 19 15 16 16 16 16 16 16 17 18 17 16 17 19 20 20 22 22 23 24 26 26 27 27 27 27 26 nan nan nan nan nan nan nan nan nan nan
nan nan nan nan nan nan nan nan nan nan nan nan nan nan nan nan nan nan nan nan nan nan nan nan nan nan nan 26 26 25 23 21 19 19 20 19 15 15 24 26 29 32 34 34 36 36 24 17 17 14 11 13 16 17 15 16 16 17 18 16 16 17 19 21 20 22 23 23 23 25 27 28 27 27 27 25 nan nan nan nan nan nan nan nan nan nan
nan nan nan nan nan nan nan nan nan nan nan nan nan nan nan nan nan nan nan nan nan nan nan nan nan nan nan nan 26 23 23 26 22 18 21 24 23 21 25 27 31 33 31 30 29 24 27 24 19 15 14 15 18 20 16 17 17 19 18 16 16 18 18 20 21 22 23 23 23 25 27 28 27 28 27 nan nan nan nan nan nan nan nan nan nan nan
nan nan nan nan nan nan nan nan nan nan nan nan nan nan nan nan nan nan nan nan nan nan nan nan 28 28 24 24 25 25 28 31 32 30 30 28 27 27 27 28 29 29 29 27 24 27 32 30 23 20 20 19 23 26 24 23 21 19 19 18 16 17 19 21 23 23 23 24 24 26 28 27 28 28 28 nan nan nan nan nan nan nan nan nan nan nan
nan nan nan nan nan nan nan nan nan nan nan nan nan nan nan nan nan nan nan nan nan nan nan nan nan 28 26 28 27 31 31 33 31 31 30 27 27 30 31 33 35 35 36 30 24 27 33 30 23 20 19 18 25 28 27 22 18 18 21 21 20 22 23 28 27 27 26 25 26 27 28 27 26 27 25 23 23 nan nan nan nan nan nan nan nan nan
nan nan nan nan nan nan nan nan nan nan nan nan nan nan nan nan nan nan nan nan nan nan nan nan 30 30 nan 27 30 34 35 33 31 31 31 31 30 31 32 34 36 35 29 31 27 28 33 29 22 18 17 16 23 24 16 18 17 19 20 21 20 22 27 30 29 28 25 24 25 26 26 23 23 23 23 nan nan nan nan nan nan nan nan nan nan nan
nan nan nan nan nan nan nan nan nan nan nan nan nan nan nan nan nan nan nan nan nan nan nan nan 30 28 29 28 32 36 36 36 37 35 36 37 34 33 32 32 34 29 29 32 29 27 30 29 21 17 16 16 23 21 18 19 19 21 21 21 22 25 29 29 28 27 24 22 22 22 20 19 21 21 nan nan nan nan nan nan nan nan nan nan nan nan
nan nan nan nan nan nan nan nan nan nan nan nan nan nan nan nan nan nan nan nan nan nan nan nan nan 28 27 nan 32 32 34 35 35 36 38 39 42 42 38 34 32 31 27 31 31 27 27 28 22 16 16 19 22 22 19 18 18 21 20 19 18 19 24 26 23 20 20 21 22 20 19 17 17 17 18 19 nan nan nan nan nan nan nan nan nan nan
nan nan nan nan nan nan nan nan nan nan nan nan nan nan nan nan nan nan nan nan nan nan nan nan nan nan 29 30 32 32 31 32 33 35 35 35 43 49 47 41 40 40 38 37 32 25 23 24 24 22 20 21 22 22 20 18 19 20 22 20 18 18 19 22 20 21 21 21 19 18 16 16 17 18 19 nan nan nan nan nan nan nan nan nan nan nan
nan nan nan nan nan nan nan nan nan nan nan nan nan nan nan nan nan nan nan nan nan nan nan nan nan nan nan 31 34 33 32 35 33 35 35 38 42 47 49 46 43 38 36 35 29 23 22 23 24 24 22 23 23 21 20 21 23 25 23 20 18 18 15 20 19 19 19 18 17 18 19 18 18 18 19 nan nan nan nan nan nan nan nan nan nan nan
nan nan nan nan nan nan nan nan nan nan nan nan nan nan nan nan nan nan nan nan nan nan nan nan nan nan nan 30 32 33 33 34 33 34 33 34 39 41 40 nan 37 36 33 31 28 25 24 22 21 20 21 22 23 21 23 26 26 21 20 21 20 20 17 19 20 21 22 20 18 19 19 19 17 17 18 nan nan nan nan nan nan nan nan nan nan nan
nan nan nan nan nan nan nan nan nan nan nan nan nan nan nan nan nan nan nan nan nan nan nan nan nan 26 26 30 29 30 29 29 29 31 31 29 31 34 31 27 nan 33 32 31 29 25 25 24 21 20 21 22 22 26 27 25 20 17 19 20 20 19 19 22 24 24 23 22 20 19 19 19 18 19 nan nan nan nan nan nan nan nan nan nan nan nan
nan nan nan nan nan nan nan nan nan nan nan nan nan nan nan nan nan nan nan nan nan nan nan nan nan 26 26 27 30 27 30 29 30 27 27 26 26 28 29 27 nan nan 27 26 25 25 25 23 20 19 19 21 23 27 25 20 18 19 21 20 19 19 19 21 24 25 25 25 23 21 21 21 20 21 nan nan nan nan nan nan nan nan nan nan nan nan
nan nan nan nan nan nan nan nan nan nan nan nan nan nan nan nan nan nan nan nan nan nan nan nan nan 22 23 29 31 31 31 30 27 25 23 22 25 26 27 26 26 27 nan nan 25 25 25 24 22 22 23 25 26 24 26 26 22 21 22 20 20 21 21 21 22 24 27 27 26 24 24 23 23 nan nan nan nan nan nan nan nan nan nan nan nan nan
nan nan nan nan nan nan nan nan nan nan nan nan nan nan nan nan nan nan nan nan nan nan nan nan nan 25 26 28 29 30 31 30 28 28 28 27 27 26 25 24 25 nan nan nan nan nan 24 25 25 28 nan 30 30 31 32 29 26 23 23 23 25 27 25 23 23 25 28 29 28 27 26 25 nan nan nan nan nan nan nan nan nan nan nan nan nan nan
nan nan nan nan nan nan nan nan nan nan nan nan nan nan nan nan nan nan nan nan nan nan nan nan nan 28 26 28 29 29 31 32 30 28 28 27 25 nan nan nan 23 23 23 22 25 25 25 nan nan nan 29 30 31 nan nan nan nan 28 25 26 27 27 27 25 25 27 28 28 28 28 nan nan nan nan nan nan nan nan nan nan nan nan nan nan nan nan
nan nan nan nan nan nan nan nan nan nan nan nan nan nan nan nan nan nan nan nan nan nan nan nan nan 31 32 31 31 32 32 31 29 28 28 28 nan nan 25 25 23 23 24 27 26 26 26 nan nan nan nan 30 32 32 32 nan nan 30 nan 26 27 27 27 27 29 30 29 29 29 nan nan nan nan nan nan nan nan nan nan nan nan nan nan nan nan nan
nan nan nan nan nan nan nan nan nan nan nan nan nan nan nan nan nan nan nan nan nan nan nan nan nan 38 nan 34 34 32 30 31 29 26 28 29 27 26 27 26 23 23 25 26 26 25 nan nan nan nan nan 32 32 31 33 32 nan nan nan 26 26 28 30 33 34 33 31 30 nan nan nan nan nan nan nan nan nan nan nan nan nan nan nan nan nan nan
nan nan nan nan nan nan nan nan nan nan nan nan nan nan nan nan nan nan nan nan nan nan nan nan nan 36 nan nan 35 33 32 32 33 31 29 27 26 26 26 26 24 25 26 nan nan nan nan nan 27 nan nan nan 33 32 34 35 nan nan nan 30 31 33 34 37 35 31 nan nan nan nan nan nan nan nan nan nan nan nan nan nan nan nan nan nan nan nan
nan nan nan nan nan nan nan nan nan nan nan nan nan nan nan nan nan nan nan nan nan nan nan nan nan nan nan nan 38 38 37 38 36 31 29 28 28 29 30 29 28 27 27 26 24 nan nan nan nan nan nan nan nan nan nan nan nan 32 29 nan 30 30 32 34 nan nan nan 27 25 nan nan nan nan nan nan nan nan nan nan nan nan nan nan nan nan nan
nan nan nan nan nan nan nan nan nan nan nan nan nan nan nan nan nan nan nan nan nan nan nan nan nan nan nan nan 40 40 41 40 37 32 30 31 nan 30 31 32 30 nan 30 28 nan nan nan nan nan nan nan nan nan nan nan nan 29 25 23 25 24 26 30 31 30 nan nan nan nan nan nan nan nan nan nan nan nan nan nan nan nan nan nan nan nan nan
nan nan nan nan nan nan nan nan nan nan nan nan nan nan nan nan nan nan nan nan nan nan nan nan nan nan nan nan nan nan 44 42 39 36 33 29 nan 31 31 30 29 29 nan 30 nan nan nan nan nan nan nan nan nan nan nan nan nan nan 23 25 26 30 29 32 nan nan nan nan nan nan nan nan nan nan nan nan nan nan nan nan nan nan nan nan 20 22
nan nan nan nan nan nan nan nan nan nan nan nan nan nan nan nan nan nan nan nan nan nan nan nan nan nan nan nan nan nan nan 45 44 41 37 36 34 33 33 34 34 nan nan nan nan nan nan nan nan nan nan nan nan nan nan nan nan nan nan nan 31 31 34 34 35 nan nan nan nan nan nan nan nan nan nan nan nan nan nan nan nan nan nan nan 24 26
nan nan nan nan nan nan nan nan nan nan nan nan nan nan nan nan nan nan nan nan nan nan nan nan nan nan nan nan nan nan nan nan nan nan nan nan nan 37 39 40 39 38 nan nan nan nan nan nan nan nan nan nan nan nan nan nan nan nan nan nan nan nan nan nan 38 37 nan nan nan nan nan nan nan nan nan nan nan nan nan nan nan nan nan nan 28 30
nan nan nan nan nan nan nan nan nan nan nan nan nan nan nan nan nan nan nan nan nan nan nan nan nan nan nan nan nan nan nan nan nan nan nan 35 nan nan nan nan nan nan nan nan nan nan nan nan nan nan nan nan nan nan nan nan nan nan nan nan nan nan nan nan nan nan nan nan nan nan nan nan nan nan nan nan nan nan nan nan nan nan nan nan nan nan
28 nan nan nan nan nan nan nan nan nan nan nan nan nan nan nan nan nan nan nan nan nan nan nan nan nan nan nan nan nan nan nan nan nan nan nan nan nan nan nan nan nan nan nan nan nan nan nan nan nan nan nan nan nan nan nan nan nan nan nan nan nan nan nan nan nan nan nan nan nan nan nan nan nan nan nan nan nan nan nan nan nan nan nan nan nan
nan nan nan nan nan nan nan nan nan nan nan nan nan nan nan nan nan nan nan nan nan nan nan nan nan nan nan nan nan nan nan nan nan nan nan nan nan nan nan nan nan nan nan nan nan nan nan nan nan nan nan nan nan nan nan nan nan nan nan nan nan nan nan nan nan nan nan nan nan nan nan nan nan nan nan nan nan nan nan nan nan nan nan nan nan nan
nan nan nan nan nan nan nan nan nan nan nan nan nan nan nan nan nan nan nan nan nan nan nan nan nan nan nan nan nan nan nan nan nan nan nan nan nan nan nan nan nan nan nan nan nan nan nan nan nan nan nan nan nan nan nan nan nan nan nan nan nan nan nan nan nan nan nan nan nan nan nan nan nan nan nan nan nan nan nan nan nan nan nan nan nan nan
nan nan nan nan nan nan nan nan nan nan nan nan nan nan nan nan nan nan nan nan nan nan nan nan nan nan nan nan nan nan nan nan nan nan nan nan nan nan nan nan nan nan nan nan nan nan nan nan nan nan nan nan nan nan nan nan nan nan nan nan nan nan nan nan nan nan nan nan nan nan nan nan nan nan nan nan nan nan nan nan nan nan nan nan nan nan
nan nan nan nan nan nan nan nan nan nan nan nan nan nan nan nan nan nan nan nan nan nan nan nan nan nan nan nan nan nan nan nan nan nan nan nan nan nan nan nan nan nan nan nan nan nan nan nan nan nan nan nan nan nan nan nan nan nan nan nan nan nan nan nan nan nan nan nan nan nan nan nan nan nan nan nan nan nan nan nan nan nan nan nan nan nan
nan nan nan nan nan nan nan nan nan nan nan nan nan nan nan nan nan nan nan nan nan nan nan nan nan nan nan nan nan nan nan nan nan nan nan nan nan nan nan nan nan nan nan nan nan nan nan nan nan nan nan nan nan nan nan nan nan nan nan nan nan nan nan nan nan nan nan nan nan nan nan nan nan nan nan nan nan nan nan nan nan nan nan nan nan nan
nan nan nan nan nan nan nan nan nan nan nan nan nan nan nan nan nan nan nan nan nan nan nan nan nan nan nan nan nan nan nan nan nan nan nan nan nan nan nan nan nan nan nan nan nan nan nan nan nan nan nan nan nan nan nan nan nan nan nan nan nan nan nan nan nan nan nan nan nan nan nan nan nan nan nan nan nan nan nan nan nan nan nan nan nan nan
nan nan nan nan nan nan nan nan nan nan nan nan nan nan nan nan nan nan nan nan nan nan nan nan nan nan nan nan nan nan nan nan nan nan nan nan nan nan nan nan nan nan nan nan nan nan nan nan nan nan nan nan nan nan nan nan nan nan nan nan nan nan nan nan nan nan nan nan nan nan nan nan nan nan nan nan nan nan nan nan nan nan nan nan nan nan
nan nan nan nan nan nan nan nan nan nan nan nan nan nan nan nan nan nan nan nan nan nan nan nan nan nan nan nan nan nan nan nan nan nan nan nan nan nan nan nan nan nan nan nan nan nan nan nan nan nan nan nan nan nan nan nan nan nan nan nan nan nan nan nan nan nan nan nan nan nan nan nan nan nan nan nan nan nan nan nan nan nan nan nan nan nan
nan nan nan nan nan nan nan nan nan nan nan nan nan nan nan nan nan nan nan nan nan nan nan nan nan nan nan nan nan nan nan nan nan nan nan nan nan nan nan nan nan nan nan nan nan nan nan nan nan nan nan nan nan nan nan nan nan nan nan nan nan nan nan nan nan nan nan nan nan nan nan nan nan nan nan nan nan nan nan nan nan nan nan nan nan nan
nan nan nan nan nan nan nan nan nan nan nan nan nan nan nan nan nan nan nan nan nan nan nan nan nan nan nan nan nan nan nan nan nan nan nan nan nan nan nan nan nan nan nan nan nan nan nan nan nan nan nan nan nan nan nan nan nan nan nan nan nan nan nan nan nan nan nan nan nan nan nan nan nan nan nan nan nan nan nan nan nan nan nan nan nan nan
nan nan nan nan nan nan nan nan nan nan nan nan nan nan nan nan nan nan nan nan nan nan nan nan nan nan nan nan nan nan nan nan nan nan nan nan nan nan nan nan nan nan nan nan nan nan nan nan nan nan nan nan nan nan nan nan nan nan nan nan nan nan nan nan nan nan nan nan nan nan nan nan nan nan nan nan nan nan nan nan nan nan nan nan nan nan
nan nan nan nan nan nan nan nan nan nan nan nan nan nan nan nan nan nan nan nan nan nan nan nan nan nan nan nan nan nan nan nan nan nan nan nan nan nan nan nan nan nan nan nan nan nan nan nan nan nan nan nan nan nan nan nan nan nan nan nan nan nan nan nan nan nan nan nan nan nan nan nan nan nan nan nan nan nan nan nan nan nan nan nan nan nan
nan nan nan nan nan nan nan nan nan nan nan nan nan nan nan nan nan nan nan nan nan nan nan nan nan nan nan nan nan nan nan nan nan nan nan nan nan nan nan nan nan nan nan nan nan nan nan nan nan nan nan nan nan nan nan nan nan nan nan nan nan nan nan nan nan nan nan nan nan nan nan nan nan nan nan nan nan nan nan nan nan nan nan nan nan nan
Wind_Direction
nan nan nan nan nan nan nan nan nan nan nan nan nan nan nan nan nan nan nan nan nan nan nan nan nan nan nan nan nan 257 257 253 251 254 258 263 269 278 285 283 272 262 254 247 263 290 331 337 334 331 310 303 304 313 319 313 306 293 295 307 314 291 260 271 284 277 273 270 264 261 264 258 250 246 242 244 238 233 233 236 241 244 247 251 253 253
nan nan nan nan nan nan nan nan nan nan nan nan nan nan nan nan nan nan nan nan nan nan nan nan nan nan nan nan nan 254 258 260 262 263 265 269 273 276 283 276 269 257 237 247 258 284 311 328 338 330 305 298 315 323 325 314 299 289 293 311 310 275 261 283 293 283 274 267 266 266 266 257 253 251 247 243 235 231 232 238 244 249 249 251 251 250
nan nan nan nan nan nan nan nan nan nan nan nan nan nan nan nan nan nan nan nan nan nan nan nan nan nan nan nan nan nan 270 271 277 280 282 280 274 274 275 271 266 256 256 272 291 279 305 327 339 328 298 292 312 314 315 289 281 281 282 287 287 271 267 276 285 283 274 263 263 266 263 262 254 238 231 239 233 229 232 235 241 244 240 242 240 241
nan nan nan nan nan nan nan nan nan nan nan nan nan nan nan nan nan nan nan nan nan nan nan nan nan nan nan nan nan nan 276 273 280 282 280 278 277 274 276 273 273 269 283 331 338 314 315 329 335 319 304 292 284 292 295 281 276 268 268 276 279 278 270 273 277 274 267 263 259 257 261 255 252 243 227 231 230 228 234 234 235 234 237 234 235 234
nan nan nan nan nan nan nan nan nan nan nan nan nan nan nan nan nan nan nan nan nan nan nan nan nan nan nan nan nan nan nan 248 254 255 250 249 248 247 239 246 253 272 280 292 299 300 319 339 345 329 304 284 283 285 294 283 273 264 270 272 277 276 276 272 270 270 267 261 255 255 252 249 237 222 217 226 223 228 235 233 232 235 228 229 231 230
nan nan nan nan nan nan nan nan nan nan nan nan nan nan nan nan nan nan nan nan nan nan nan nan nan nan nan nan nan nan nan nan 247 261 259 258 256 255 257 258 254 244 259 294 305 309 330 337 309 308 308 294 279 283 288 284 276 272 265 266 269 268 270 271 267 269 267 264 264 261 254 238 223 220 222 230 237 235 237 235 220 221 219 224 226 229
nan nan nan nan nan nan nan nan nan nan nan nan nan nan nan nan nan nan nan nan nan nan nan nan nan nan nan nan nan nan nan 235 235 250 251 253 255 258 259 265 265 273 274 253 238 252 318 320 310 313 311 291 280 276 278 281 280 274 262 265 267 268 268 267 263 260 260 260 260 257 243 233 232 232 217 221 228 235 225 225 222 218 212 211 224 226
nan nan nan nan nan nan nan nan nan nan nan nan nan nan nan nan nan nan nan nan nan nan nan nan nan nan nan nan nan nan 229 226 228 234 246 253 256 258 263 264 267 275 288 286 298 314 347 320 314 318 298 276 273 275 276 276 274 277 271 267 268 268 269 263 257 252 255 259 252 245 238 237 239 242 240 235 233 226 226 225 218 218 211 211 222 nan
nan nan nan nan nan nan nan nan nan nan nan nan nan nan nan nan nan nan nan nan nan nan nan nan nan nan nan nan 213 216 220 215 217 233 246 259 269 272 276 268 281 282 287 288 284 318 341 312 301 296 279 267 270 276 278 269 260 260 264 266 269 272 269 259 247 246 245 252 251 246 241 240 236 242 242 236 233 234 227 226 218 220 217 217 nan nan
nan nan nan nan nan nan nan nan nan nan nan nan nan nan nan nan nan nan nan nan nan nan nan nan nan nan nan nan 200 199 206 202 209 217 235 263 282 285 279 267 272 266 263 268 280 273 266 269 267 262 265 266 264 266 266 258 253 256 260 267 268 265 268 261 244 239 240 248 250 247 243 246 240 237 234 234 234 230 228 nan nan 225 226 225 nan nan
nan nan nan nan nan nan nan nan nan nan nan nan nan nan nan nan nan nan nan nan nan nan nan nan nan nan nan nan 198 211 202 211 209 212 223 245 256 266 267 274 268 274 274 270 273 256 247 251 258 263 264 263 261 260 259 256 258 259 262 266 266 261 266 265 248 238 241 244 247 248 248 249 246 241 241 236 233 232 nan nan nan nan nan nan nan nan
nan nan nan nan nan nan nan nan nan nan nan nan nan nan nan nan nan nan nan nan nan nan nan nan nan nan nan nan 195 202 206 213 209 211 244 274 281 274 280 266 263 264 268 259 257 252 252 256 252 251 255 257 259 258 256 256 261 265 265 267 267 263 265 260 247 238 237 242 245 248 251 251 251 247 240 243 244 nan nan nan nan nan nan nan nan nan
nan nan nan nan nan nan nan nan nan nan nan nan nan nan nan nan nan nan nan nan nan nan nan nan nan nan nan 216 210 205 204 205 203 202 221 256 274 266 266 266 257 253 256 245 241 235 222 218 226 234 243 252 253 251 255 261 264 267 267 271 270 262 260 257 248 240 234 237 244 249 250 249 250 247 243 245 nan nan nan nan nan nan nan nan nan nan
nan nan nan nan nan nan nan nan nan nan nan nan nan nan nan nan nan nan nan nan nan nan nan nan nan nan nan 209 212 204 198 200 201 203 210 213 222 238 239 249 251 248 249 249 252 244 222 216 233 238 239 255 255 249 252 259 260 263 266 268 264 255 255 256 248 242 237 235 241 246 250 250 248 244 245 247 nan nan nan nan nan nan nan nan nan nan
nan nan nan nan nan nan nan nan nan nan nan nan nan nan nan nan nan nan nan nan nan nan nan nan nan nan nan nan 216 211 203 200 206 221 227 235 243 248 250 249 254 257 260 267 271 257 228 230 248 263 270 268 265 260 249 247 249 254 258 260 258 251 248 253 249 240 237 235 240 243 248 251 247 247 246 nan nan nan nan nan nan nan nan nan nan nan
nan nan nan nan nan nan nan nan nan nan nan nan nan nan nan nan nan nan nan nan nan nan nan nan 217 224 224 212 209 218 214 218 221 230 242 248 254 257 259 255 255 255 258 268 269 244 236 242 252 265 274 271 268 257 239 233 240 249 253 248 244 245 247 246 238 232 230 231 236 239 245 247 248 245 244 nan nan nan nan nan nan nan nan nan nan nan
nan nan nan nan nan nan nan nan nan nan nan nan nan nan nan nan nan nan nan nan nan nan nan nan nan 211 208 214 211 215 216 226 227 234 241 249 260 265 265 262 256 245 238 231 240 242 239 241 251 263 266 262 260 252 240 223 236 261 266 254 241 238 236 236 226 225 225 229 233 234 240 244 244 247 248 244 238 nan nan nan nan nan nan nan nan nan
nan nan nan nan nan nan nan nan nan nan nan nan nan nan nan nan nan nan nan nan nan nan nan nan 218 208 nan 220 213 220 218 225 231 234 240 243 252 257 258 260 259 271 267 235 227 238 234 236 253 255 249 252 262 266 265 250 248 266 274 278 270 248 233 230 230 228 227 230 230 230 233 236 240 242 241 nan nan nan nan nan nan nan nan nan nan nan
nan nan nan nan nan nan nan nan nan nan nan nan nan nan nan nan nan nan nan nan nan nan nan nan 223 218 229 223 222 223 219 220 223 231 239 241 238 240 238 240 247 253 250 242 251 256 239 239 254 256 252 258 267 272 264 250 257 269 270 267 269 256 239 237 236 230 225 227 232 232 235 237 236 238 nan nan nan nan nan nan nan nan nan nan nan nan
nan nan nan nan nan nan nan nan nan nan nan nan nan nan nan nan nan nan nan nan nan nan nan nan nan 228 230 nan 230 223 224 229 236 237 244 244 244 242 237 229 227 238 240 239 246 249 238 237 242 247 265 277 280 282 279 272 267 272 271 271 272 256 248 253 259 255 246 237 235 238 238 238 247 253 256 253 nan nan nan nan nan nan nan nan nan nan
nan nan nan nan nan nan nan nan nan nan nan nan nan nan nan nan nan nan nan nan nan nan nan nan nan nan 231 235 233 233 232 240 249 253 252 249 247 249 252 241 223 221 224 223 230 233 230 229 226 225 235 249 264 273 275 277 275 270 269 267 269 270 254 249 249 245 243 244 243 248 252 251 250 253 254 nan nan nan nan nan nan nan nan nan nan nan
nan nan nan nan nan nan nan nan nan nan nan nan nan nan nan nan nan nan nan nan nan nan nan nan nan nan nan 237 239 239 242 250 258 265 260 258 252 255 257 242 223 219 220 219 214 227 230 234 234 234 236 238 251 264 272 271 264 262 271 281 281 279 259 245 247 253 250 250 260 254 248 250 248 253 255 nan nan nan nan nan nan nan nan nan nan nan
nan nan nan nan nan nan nan nan nan nan nan nan nan nan nan nan nan nan nan nan nan nan nan nan nan nan nan 243 242 246 249 254 260 263 258 255 251 252 256 nan 226 221 225 218 222 230 230 234 236 238 243 243 245 245 249 256 265 275 294 297 292 288 272 254 247 245 253 258 257 254 253 257 256 256 260 nan nan nan nan nan nan nan nan nan nan nan
nan nan nan nan nan nan nan nan nan nan nan nan nan nan nan nan nan nan nan nan nan nan nan nan nan 249 241 242 245 251 252 250 252 260 259 253 251 249 253 248 nan 228 225 225 225 224 222 222 225 234 243 242 246 252 256 257 269 281 278 277 275 275 267 255 250 250 253 254 253 254 260 263 263 266 nan nan nan nan nan nan nan nan nan nan nan nan
nan nan nan nan nan nan nan nan nan nan nan nan nan nan nan nan nan nan nan nan nan nan nan nan nan 250 246 245 248 254 251 252 255 257 262 267 263 256 258 258 nan nan 234 233 230 223 219 220 223 221 227 238 245 253 260 267 254 252 260 261 263 262 261 254 250 251 250 253 257 258 265 268 268 267 nan nan nan nan nan nan nan nan nan nan nan nan
nan nan nan nan nan nan nan nan nan nan nan nan nan nan nan nan nan nan nan nan nan nan nan nan nan 251 253 253 250 249 252 252 251 251 243 248 258 264 265 258 242 228 nan nan 213 212 213 213 209 213 225 229 228 232 240 239 240 247 249 246 240 247 246 247 250 253 253 251 258 262 266 270 271 nan nan nan nan nan nan nan nan nan nan nan nan nan
nan nan nan nan nan nan nan nan nan nan nan nan nan nan nan nan nan nan nan nan nan nan nan nan nan 256 258 255 250 246 247 250 249 246 248 249 249 254 262 258 240 nan nan nan nan nan 218 211 210 213 nan 231 234 235 236 233 239 246 250 244 238 237 239 241 249 253 255 255 260 266 268 269 nan nan nan nan nan nan nan nan nan nan nan nan nan nan
nan nan nan nan nan nan nan nan nan nan nan nan nan nan nan nan nan nan nan nan nan nan nan nan nan 258 258 256 253 251 248 245 244 246 248 250 248 nan nan nan 237 228 226 225 222 220 225 nan nan nan 236 238 242 nan nan nan nan 235 238 240 237 238 242 245 254 261 262 262 263 263 nan nan nan nan nan nan nan nan nan nan nan nan nan nan nan nan
nan nan nan nan nan nan nan nan nan nan nan nan nan nan nan nan nan nan nan nan nan nan nan nan nan 256 249 243 245 250 254 254 252 251 250 252 nan nan 252 251 243 237 231 226 219 221 225 nan nan nan nan 248 245 248 245 nan nan 242 nan 237 238 238 237 243 250 252 252 251 252 nan nan nan nan nan nan nan nan nan nan nan nan nan nan nan nan nan
nan nan nan nan nan nan nan nan nan nan nan nan nan nan nan nan nan nan nan nan nan nan nan nan nan 246 nan 246 248 250 255 261 259 256 254 250 248 249 249 246 245 242 234 231 230 230 nan nan nan nan nan 249 245 241 241 239 nan nan nan 239 239 241 241 244 246 250 252 252 nan nan nan nan nan nan nan nan nan nan nan nan nan nan nan nan nan nan
nan nan nan nan nan nan nan nan nan nan nan nan nan nan nan nan nan nan nan nan nan nan nan nan nan 249 nan nan 253 252 255 260 258 253 255 255 253 252 252 249 246 243 236 nan nan nan nan nan 242 nan nan nan 246 243 236 233 nan nan nan 240 237 236 240 245 247 248 nan nan nan nan nan nan nan nan nan nan nan nan nan nan nan nan nan nan nan nan
nan nan nan nan nan nan nan nan nan nan nan nan nan nan nan nan nan nan nan nan nan nan nan nan nan nan nan nan 256 252 253 254 256 256 257 258 254 252 252 250 247 242 240 242 247 nan nan nan nan nan nan nan nan nan nan nan nan 238 240 nan 238 236 236 238 nan nan nan 234 236 nan nan nan nan nan nan nan nan nan nan nan nan nan nan nan nan nan
nan nan nan nan nan nan nan nan nan nan nan nan nan nan nan nan nan nan nan nan nan nan nan nan nan nan nan nan 262 255 255 256 255 254 258 256 nan 250 250 249 245 nan 243 244 nan nan nan nan nan nan nan nan nan nan nan nan 233 230 232 237 235 236 236 236 239 nan nan nan nan nan nan nan nan nan nan nan nan nan nan nan nan nan nan nan nan nan
nan nan nan nan nan nan nan nan nan nan nan nan nan nan nan nan nan nan nan nan nan nan nan nan nan nan nan nan nan nan 256 254 256 255 250 253 nan 254 249 245 244 244 nan 249 nan nan nan nan nan nan nan nan nan nan nan nan nan nan 237 240 238 240 240 244 nan nan nan nan nan nan nan nan nan nan nan nan nan nan nan nan nan nan nan nan 238 242
nan nan nan nan nan nan nan nan nan nan nan nan nan nan nan nan nan nan nan nan nan nan nan nan nan nan nan nan nan nan nan 257 255 253 249 246 250 253 253 250 247 nan nan nan nan nan nan nan nan nan nan nan nan nan nan nan nan nan nan nan 241 240 244 243 244 nan nan nan nan nan nan nan nan nan nan nan nan nan nan nan nan nan nan nan 241 245
nan nan nan nan nan nan nan nan nan nan nan nan nan nan nan nan nan nan nan nan nan nan nan nan nan nan nan nan nan nan nan nan nan nan nan nan nan 250 252 253 252 251 nan nan nan nan nan nan nan nan nan nan nan nan nan nan nan nan nan nan nan nan nan nan 241 239 nan nan nan nan nan nan nan nan nan nan nan nan nan nan nan nan nan nan 239 246
nan nan nan nan nan nan nan nan nan nan nan nan nan nan nan nan nan nan nan nan nan nan nan nan nan nan nan nan nan nan nan nan nan nan nan 243 nan nan nan nan nan nan nan nan nan nan nan nan nan nan nan nan nan nan nan nan nan nan nan nan nan nan nan nan nan nan nan nan nan nan nan nan nan nan nan nan nan nan nan nan nan nan nan nan nan nan
259 nan nan nan nan nan nan nan nan nan nan nan nan nan nan nan nan nan nan nan nan nan nan nan nan nan nan nan nan nan nan nan nan nan nan nan nan nan nan nan nan nan nan nan nan nan nan nan nan nan nan nan nan nan nan nan nan nan nan nan nan nan nan nan nan nan nan nan nan nan nan nan nan nan nan nan nan nan nan nan nan nan nan nan nan nan
nan nan nan nan nan nan nan nan nan nan nan nan nan nan nan nan nan nan nan nan nan nan nan nan nan nan nan nan nan nan nan nan nan nan nan nan nan nan nan nan nan nan nan nan nan nan nan nan nan nan nan nan nan nan nan nan nan nan nan nan nan nan nan nan nan nan nan nan nan nan nan nan nan nan nan nan nan nan nan nan nan nan nan nan nan nan
nan nan nan nan nan nan nan nan nan nan nan nan nan nan nan nan nan nan nan nan nan nan nan nan nan nan nan nan nan nan nan nan nan nan nan nan nan nan nan nan nan nan nan nan nan nan nan nan nan nan nan nan nan nan nan nan nan nan nan nan nan nan nan nan nan nan nan nan nan nan nan nan nan nan nan nan nan nan nan nan nan nan nan nan nan nan
nan nan nan nan nan nan nan nan nan nan nan nan nan nan nan nan nan nan nan nan nan nan nan nan nan nan nan nan nan nan nan nan nan nan nan nan nan nan nan nan nan nan nan nan nan nan nan nan nan nan nan nan nan nan nan nan nan nan nan nan nan nan nan nan nan nan nan nan nan nan nan nan nan nan nan nan nan nan nan nan nan nan nan nan nan nan
nan nan nan nan nan nan nan nan nan nan nan nan nan nan nan nan nan nan nan nan nan nan nan nan nan nan nan nan nan nan nan nan nan nan nan nan nan nan nan nan nan nan nan nan nan nan nan nan nan nan nan nan nan nan nan nan nan nan nan nan nan nan nan nan nan nan nan nan nan nan nan nan nan nan nan nan nan nan nan nan nan nan nan nan nan nan
nan nan nan nan nan nan nan nan nan nan nan nan nan nan nan nan nan nan nan nan nan nan nan nan nan nan nan nan nan nan nan nan nan nan nan nan nan nan nan nan nan nan nan nan nan nan nan nan nan nan nan nan nan nan nan nan nan nan nan nan nan nan nan nan nan nan nan nan nan nan nan nan nan nan nan nan nan nan nan nan nan nan nan nan nan nan
nan nan nan nan nan nan nan nan nan nan nan nan nan nan nan nan nan nan nan nan nan nan nan nan nan nan nan nan nan nan nan nan nan nan nan nan nan nan nan nan nan nan nan nan nan nan nan nan nan nan nan nan nan nan nan nan nan nan nan nan nan nan nan nan nan nan nan nan nan nan nan nan nan nan nan nan nan nan nan nan nan nan nan nan nan nan
nan nan nan nan nan nan nan nan nan nan nan nan nan nan nan nan nan nan nan nan nan nan nan nan nan nan nan nan nan nan nan nan nan nan nan nan nan nan nan nan nan nan nan nan nan nan nan nan nan nan nan nan nan nan nan nan nan nan nan nan nan nan nan nan nan nan nan nan nan nan nan nan nan nan nan nan nan nan nan nan nan nan nan nan nan nan
nan nan nan nan nan nan nan nan nan nan nan nan nan nan nan nan nan nan nan nan nan nan nan nan nan nan nan nan nan nan nan nan nan nan nan nan nan nan nan nan nan nan nan nan nan nan nan nan nan nan nan nan nan nan nan nan nan nan nan nan nan nan nan nan nan nan nan nan nan nan nan nan nan nan nan nan nan nan nan nan nan nan nan nan nan nan
nan nan nan nan nan nan nan nan nan nan nan nan nan nan nan nan nan nan nan nan nan nan nan nan nan nan nan nan nan nan nan nan nan nan nan nan nan nan nan nan nan nan nan nan nan nan nan nan nan nan nan nan nan nan nan nan nan nan nan nan nan nan nan nan nan nan nan nan nan nan nan nan nan nan nan nan nan nan nan nan nan nan nan nan nan nan
nan nan nan nan nan nan nan nan nan nan nan nan nan nan nan nan nan nan nan nan nan nan nan nan nan nan nan nan nan nan nan nan nan nan nan nan nan nan nan nan nan nan nan nan nan nan nan nan nan nan nan nan nan nan nan nan nan nan nan nan nan nan nan nan nan nan nan nan nan nan nan nan nan nan nan nan nan nan nan nan nan nan nan nan nan nan
nan nan nan nan nan nan nan nan nan nan nan nan nan nan nan nan nan nan nan nan nan nan nan nan nan nan nan nan nan nan nan nan nan nan nan nan nan nan nan nan nan nan nan nan nan nan nan nan nan nan nan nan nan nan nan nan nan nan nan nan nan nan nan nan nan nan nan nan nan nan nan nan nan nan nan nan nan nan nan nan nan nan nan nan nan nan
nan nan nan nan nan nan nan nan nan nan nan nan nan nan nan nan nan nan nan nan nan nan nan nan nan nan nan nan nan nan nan nan nan nan nan nan nan nan nan nan nan nan nan nan nan nan nan nan nan nan nan nan nan nan nan nan nan nan nan nan nan nan nan nan nan nan nan nan nan nan nan nan nan nan nan nan nan nan nan nan nan nan nan nan nan nan
nan nan nan nan nan nan nan nan nan nan nan nan nan nan nan nan nan nan nan nan nan nan nan nan nan nan nan nan nan nan nan nan nan nan nan nan nan nan nan nan nan nan nan nan nan nan nan nan nan nan nan nan nan nan nan nan nan nan nan nan nan nan nan nan nan nan nan nan nan nan nan nan nan nan nan nan nan nan nan nan nan nan nan nan nan nan